Weather History for KCCU - January, 2014

Change the Weather History Date:

Sunday, January 5, 2014

  Actual Average (KLXV) Record (KLXV)
Temperature  
Mean Temperature -4 °F -  
Max Temperature -4 °F 30 °F 45 °F (1984)
Min Temperature -5 °F 4 °F -15 °F (1977)
Degree Days  
Heating Degree Days 70 48  
Month to date heating degree days 240  
Since 1 July heating degree days 5141  
Cooling Degree Days 0 0  
Month to date cooling degree days 0  
Year to date cooling degree days 0  
Moisture  
Dew Point -12 °F    
Average Humidity 68    
Maximum Humidity 71    
Minimum Humidity 65    
Precipitation  
Precipitation 0.00 in 0.02 in 0.24 in (2008)
Month to date precipitation 0.10  
Year to date precipitation 0.10  
Sea Level Pressure  
Sea Level Pressure 29.79 in    
Wind  
Wind Speed 27 mph (West)    
Max Wind Speed 45 mph    
Max Gust Speed 55 mph    
Visibility 1 miles    
Events Snow    
T = Trace of Precipitation, MM = Missing Value Source: NWS Daily Summary

Daily Weather History Graph

Daily Weather History Graph

Search for Another Location

Airport or City:

Trip Planner

Search our weather history database for the weather conditions in past years. The results will help you decide how hot, cold, wet, or windy it might be!

Date:

Astronomy

Jan. 05, 2014 Rise Set
Actual Time 7:25 AM MST 4:55 PM MST
Civil Twilight 6:55 AM MST 5:25 PM MST
Nautical Twilight 6:21 AM MST 5:58 PM MST
Astronomical Twilight 5:49 AM MST 6:31 PM MST
Moon 10:09 AM MST (1/5) 10:24 PM MST (1/5)
Length of Visible Light 10h 30m
Length of Day
9h 30m
Waxing Crescent, 25% of the Moon is Illuminated
Jan 5
Waxing Crescent
Jan 7
First Quarter
Jan 15
Full
Jan 23
Last Quarter
Jan 30
New

Hourly Weather History & Observations

Time (MST) Temp. Windchill Dew Point Humidity Pressure Visibility Wind Dir Wind Speed Gust Speed Precip Events Conditions
12:15 AM -4.0 °F -27.6 °F -11.2 °F 71% 29.72 in - West 20.7 mph 25.3 mph N/A   Mostly Cloudy
12:35 AM -4.0 °F -25.2 °F -11.2 °F 71% 29.72 in - West 16.1 mph - N/A   Mostly Cloudy
12:55 AM -4.0 °F -28.1 °F -11.2 °F 71% 29.71 in - West 21.9 mph 26.5 mph N/A   Overcast
1:15 AM -4.0 °F -28.6 °F -11.2 °F 71% 29.71 in - West 23.0 mph 31.1 mph N/A   Overcast
1:35 AM -4.0 °F -30.0 °F -11.2 °F 71% 29.71 in - West 26.5 mph - N/A   Overcast
1:55 AM -4.0 °F -31.3 °F -11.2 °F 71% 29.71 in - West 29.9 mph 38.0 mph N/A   Scattered Clouds
2:15 AM -4.0 °F -32.0 °F -11.2 °F 71% 29.71 in - West 32.2 mph 38.0 mph N/A   Unknown
2:35 AM -4.0 °F -30.4 °F -11.2 °F 71% 29.71 in - West 27.6 mph 35.7 mph N/A   Overcast
2:55 AM -4.0 °F -32.0 °F -11.2 °F 71% 29.70 in - West 32.2 mph 38.0 mph N/A   Overcast
3:15 AM -4.0 °F -30.0 °F -11.2 °F 71% 29.71 in - West 26.5 mph 35.7 mph N/A   Overcast
3:35 AM -4.0 °F -28.1 °F -11.2 °F 71% 29.72 in - West 21.9 mph 33.4 mph N/A   Overcast
3:55 AM -4.0 °F -30.0 °F -11.2 °F 71% 29.72 in - West 26.5 mph 29.9 mph N/A   Overcast
4:15 AM -4.0 °F -30.0 °F -11.2 °F 71% 29.72 in - West 26.5 mph 34.5 mph N/A   Overcast
4:35 AM -4.0 °F -29.1 °F -11.2 °F 71% 29.72 in - West 24.2 mph 33.4 mph N/A   Overcast
4:55 AM -4.0 °F -27.6 °F -11.2 °F 71% 29.74 in - West 20.7 mph 32.2 mph N/A   Overcast
5:15 AM -4.0 °F -29.6 °F -11.2 °F 71% 29.73 in - West 25.3 mph 36.8 mph N/A   Overcast
5:35 AM -4.0 °F -29.1 °F -11.2 °F 71% 29.74 in - West 24.2 mph 32.2 mph N/A   Overcast
5:55 AM -4.0 °F -29.1 °F -11.2 °F 71% 29.72 in - West 24.2 mph 35.7 mph N/A   Overcast
6:15 AM -4.0 °F -30.9 °F -11.2 °F 71% 29.73 in - West 28.8 mph 35.7 mph N/A   Overcast
6:35 AM -4.0 °F -30.0 °F -11.2 °F 71% 29.73 in - West 26.5 mph 33.4 mph N/A   Overcast
6:55 AM -4.0 °F -30.9 °F -13.0 °F 65% 29.73 in - West 28.8 mph 34.5 mph N/A   Overcast
7:15 AM -4.0 °F -29.6 °F -13.0 °F 65% 29.74 in - West 25.3 mph 34.5 mph N/A   Overcast
7:35 AM -4.0 °F -30.4 °F -11.2 °F 71% 29.74 in - West 27.6 mph 33.4 mph N/A   Overcast
7:55 AM -4.0 °F -26.4 °F -11.2 °F 71% 29.75 in - West 18.4 mph 38.0 mph N/A   Overcast
8:15 AM -4.0 °F -31.3 °F -11.2 °F 71% 29.75 in - West 29.9 mph 42.6 mph N/A   Overcast
8:35 AM -4.0 °F -30.4 °F -11.2 °F 71% 29.76 in - West 27.6 mph 35.7 mph N/A   Overcast
8:55 AM -4.0 °F -29.1 °F -11.2 °F 71% 29.76 in - West 24.2 mph 39.1 mph N/A   Overcast
9:15 AM -4.0 °F -29.1 °F -11.2 °F 71% 29.77 in - West 24.2 mph 51.8 mph N/A   Overcast
9:35 AM -4.0 °F -35.3 °F -11.2 °F 71% 29.75 in - West 43.7 mph 51.8 mph N/A   Overcast
9:55 AM -4.0 °F -30.9 °F -11.2 °F 71% 29.77 in 0.5 mi West 28.8 mph 35.7 mph N/A Snow Light Snow
10:15 AM -4.0 °F -30.9 °F -11.2 °F 71% 29.78 in 0.2 mi West 28.8 mph 46.0 mph N/A Snow Snow
10:35 AM -4.0 °F -31.6 °F -11.2 °F 71% 29.78 in 0.2 mi West 31.1 mph 49.5 mph N/A Snow Snow
10:55 AM -4.0 °F -33.4 °F -11.2 °F 71% 29.77 in 0.2 mi West 36.8 mph 46.0 mph N/A Snow Snow
11:15 AM -4.0 °F -28.6 °F -11.2 °F 71% 29.77 in 0.2 mi West 23.0 mph 39.1 mph N/A Snow Snow
11:35 AM -4.0 °F -29.6 °F -13.0 °F 65% 29.77 in - West 25.3 mph 34.5 mph N/A   Overcast
11:55 AM -4.0 °F -28.6 °F -11.2 °F 71% 29.77 in - West 23.0 mph 34.5 mph N/A   Overcast
12:15 PM -4.0 °F -29.1 °F -11.2 °F 71% 29.76 in - WNW 24.2 mph 35.7 mph N/A   Overcast
12:35 PM -4.0 °F -31.6 °F -13.0 °F 65% 29.75 in - West 31.1 mph 48.3 mph N/A   Overcast
12:55 PM -4.0 °F -33.4 °F -13.0 °F 65% 29.76 in - West 36.8 mph 46.0 mph N/A   Overcast
1:15 PM -4.0 °F -32.4 °F -13.0 °F 65% 29.76 in - West 33.4 mph 52.9 mph N/A   Overcast
1:35 PM -4.0 °F -33.4 °F -13.0 °F 65% 29.77 in 0.2 mi West 36.8 mph 47.2 mph N/A Snow Light Snow
1:55 PM -4.0 °F -31.3 °F -11.2 °F 71% 29.78 in 0.5 mi WNW 29.9 mph 44.9 mph N/A Snow Light Snow
2:15 PM -4.0 °F -31.6 °F -13.0 °F 65% 29.78 in 0.2 mi West 31.1 mph 39.1 mph N/A Snow Snow
2:35 PM -4.0 °F -22.1 °F -13.0 °F 65% 29.80 in - West 11.5 mph 34.5 mph N/A   Overcast
2:55 PM -4.0 °F -31.3 °F -13.0 °F 65% 29.80 in - West 29.9 mph 38.0 mph N/A   Overcast
3:15 PM -5.8 °F -34.5 °F -13.0 °F 71% 29.80 in - West 32.2 mph 46.0 mph N/A   Overcast
3:35 PM -4.0 °F -30.9 °F -13.0 °F 65% 29.80 in - WNW 28.8 mph 42.6 mph N/A   Overcast
3:55 PM -5.8 °F -34.9 °F -14.8 °F 65% 29.81 in - WNW 33.4 mph 46.0 mph N/A   Overcast
4:15 PM -5.8 °F -33.3 °F -14.8 °F 65% 29.81 in - WNW 28.8 mph 46.0 mph N/A   Overcast
4:35 PM -5.8 °F -33.3 °F -13.0 °F 71% 29.82 in - West 28.8 mph 43.7 mph N/A   Overcast
4:55 PM -4.0 °F -33.8 °F -13.0 °F 65% 29.81 in - West 38.0 mph 46.0 mph N/A   Overcast
5:15 PM -5.8 °F -33.3 °F -13.0 °F 71% 29.84 in 0.8 mi West 28.8 mph 43.7 mph N/A Snow Light Snow
5:35 PM -5.8 °F -32.4 °F -13.0 °F 71% 29.85 in 0.5 mi West 26.5 mph 43.7 mph N/A Snow Snow
5:55 PM -4.0 °F -34.1 °F -13.0 °F 65% 29.83 in 0.5 mi West 39.1 mph 51.8 mph N/A Snow Snow
6:15 PM -4.0 °F -31.3 °F -13.0 °F 65% 29.86 in 0.5 mi West 29.9 mph 48.3 mph N/A Snow Snow
6:35 PM -4.0 °F -31.3 °F -13.0 °F 65% 29.87 in 0.8 mi West 29.9 mph 40.3 mph N/A Snow Snow
6:55 PM -4.0 °F -28.6 °F -13.0 °F 65% 29.88 in 0.8 mi West 23.0 mph 44.9 mph N/A Snow Snow
7:15 PM -4.0 °F -29.1 °F -13.0 °F 65% 29.89 in 0.5 mi West 24.2 mph 49.5 mph N/A Snow Snow
7:35 PM -4.0 °F -33.1 °F -13.0 °F 65% 29.86 in 0.8 mi West 35.7 mph 44.9 mph N/A Snow Snow
7:55 PM -4.0 °F -30.9 °F -13.0 °F 65% 29.89 in 0.8 mi West 28.8 mph 38.0 mph N/A Snow Snow
8:15 PM -4.0 °F -30.9 °F -13.0 °F 65% 29.89 in 0.2 mi West 28.8 mph 55.2 mph N/A Snow Heavy Snow
8:35 PM -4.0 °F -33.4 °F -13.0 °F 65% 29.88 in 0.5 mi West 36.8 mph 48.3 mph N/A Snow Snow
8:55 PM -4.0 °F -32.8 °F -13.0 °F 65% 29.89 in 0.8 mi West 34.5 mph 48.3 mph N/A Snow Snow
9:15 PM -4.0 °F -34.7 °F -13.0 °F 65% 29.88 in 0.8 mi West 41.4 mph 50.6 mph N/A Snow Snow
9:35 PM -4.0 °F -31.3 °F -13.0 °F 65% 29.91 in 0.8 mi West 29.9 mph 51.8 mph N/A Snow Snow
9:55 PM -4.0 °F -33.1 °F -13.0 °F 65% 29.89 in 0.8 mi West 35.7 mph 55.2 mph N/A Snow Snow
10:15 PM -4.0 °F -34.1 °F -13.0 °F 65% 29.90 in 0.8 mi West 39.1 mph 54.1 mph N/A Snow Snow
10:35 PM -4.0 °F -32.4 °F -13.0 °F 65% 29.90 in 0.8 mi West 33.4 mph 49.5 mph N/A Snow Snow
10:55 PM -4.0 °F -29.1 °F -13.0 °F 65% 29.92 in 1.0 mi West 24.2 mph 46.0 mph N/A Snow Light Snow
11:15 PM -4.0 °F -35.6 °F -13.0 °F 65% 29.91 in 1.2 mi West 44.9 mph 52.9 mph N/A Snow Light Snow
11:35 PM -5.8 °F -37.2 °F -14.8 °F 65% 29.90 in 1.8 mi West 41.4 mph 52.9 mph N/A Snow Light Snow
11:55 PM -5.8 °F -35.2 °F -14.8 °F 65% 29.92 in 2.5 mi West 34.5 mph 44.9 mph N/A   Haze